Location: Newark
(46.2667°N, 5.0658°E)
Time: 00:51:17
(UTC+00:00)

N. Korean satellite - Pass Details

Date: 21 September 2019
Orbit: 455 x 508 km, 97.2° (Epoch: 16 October)

Event Time Altitude Azimuth Distance (km) Brightness Sun altitude
Rises 04:33:00 0° 33° (NNE) 2,483 10.9 -9.7°
Reaches altitude 10° 04:36:10 10° 66° (ENE) 1,600 10.7 -9.2°
Maximum altitude 04:37:34 12° 90° (E) 1,474 10.5 -8.9°
Drops below altitude 10° 04:38:59 10° 115° (ESE) 1,596 10.1 -8.7°
Sets 04:42:07 0° 147° (SSE) 2,466 10.5 -8.2°
